Location: Patricia
(50.7000°N, 111.6833°W)
Time: 14:48:18
(UTC+00:00)

Envisat - Visible Passes

Search period start: 01 December 2021 00:00
Search period end: 11 December 2021 00:00
Orbit: 764 x 766 km, 98.2° (Epoch: 01 December)

Date Brightness Start Highest point End Pass type
(mag) Time Alt. Az. Time Alt. Az. Time Alt. Az.
01 Dec 5.1 00:22:00 10° SSW 00:26:30 31° W 00:31:01 10° NNW visible
01 Dec 3.4 12:24:56 10° NNE 12:30:00 64° ESE 12:35:03 10° S visible
01 Dec 4.0 14:04:40 10° N 14:08:37 23° WNW 14:12:33 10° WSW visible
02 Dec 4.7 11:48:23 10° NNE 11:52:57 32° E 11:57:28 10° SSE visible
02 Dec 3.3 13:27:18 10° N 13:32:04 42° WNW 13:36:49 10° SW visible
03 Dec 5.8 00:48:24 10° SW 00:52:05 20° W 00:55:45 10° NW visible
03 Dec 5.7 11:12:29 10° NE 11:15:40 17° E 11:18:51 10° SE visible
03 Dec 2.9 12:50:13 10° NNE 12:55:20 81° WNW 13:00:25 10° SSW visible
03 Dec 4.5 14:30:40 10° NNW 14:33:36 16° NW 14:36:32 10° W visible
04 Dec 4.7 00:10:08 10° SSW 00:14:51 38° W 00:19:37 10° NNW visible
04 Dec 3.8 12:13:26 10° NNE 12:18:25 52° E 12:23:22 10° S visible
04 Dec 3.8 13:52:55 10° N 13:57:11 28° WNW 14:01:25 10° WSW visible
05 Dec 6.2 01:15:49 10° WSW 01:17:45 12° W 01:19:41 10° WNW visible
05 Dec 5.0 11:37:01 10° NE 11:41:17 26° E 11:45:31 10° SSE visible
05 Dec 3.1 13:15:39 10° N 13:20:35 51° WNW 13:25:28 10° SW visible
06 Dec 5.5 00:36:18 10° SW 00:40:23 24° W 00:44:30 10° NW visible
06 Dec 5.9 11:01:32 10° ENE 11:03:57 13° E 11:06:22 10° ESE visible
06 Dec 3.0 12:38:39 10° NNE 12:43:47 83° ESE 12:48:52 10° SSW visible
06 Dec 4.3 14:18:45 10° NNW 14:22:12 19° NW 14:25:37 10° W visible
06 Dec 4.2 23:58:20 10° S 00:03:14 47° W 00:08:10 10° NNW visible
07 Dec 4.1 12:01:57 10° NNE 12:06:47 42° E 12:11:36 10° SSE visible
07 Dec 3.6 13:41:12 10° N 13:45:43 33° WNW 13:50:13 10° SW visible
08 Dec 6.0 01:03:08 10° WSW 01:06:01 15° W 01:08:55 10° NW visible
08 Dec 5.3 11:25:43 10° NE 11:29:37 22° E 11:33:28 10° SE visible
08 Dec 2.9 13:04:01 10° N 13:09:03 62° WNW 13:14:04 10° SSW visible
09 Dec 5.2 00:24:18 10° SSW 00:28:43 29° W 00:33:09 10° NNW visible
09 Dec 6.1 10:51:17 10° ENE 10:52:13 10° E 10:53:08 10° E visible
09 Dec 3.2 12:27:07 10° NNE 12:32:12 68° ESE 12:37:16 10° S visible
09 Dec 4.1 14:06:56 10° N 14:10:46 22° WNW 14:14:36 10° WSW visible
10 Dec 4.5 11:50:31 10° NNE 11:55:09 34° E 11:59:46 10° SSE visible
10 Dec 3.4 13:29:31 10° N 13:34:15 40° WNW 13:38:56 10° SW visible
